Tracking 17151 objects as of 4-May-2015
HD Live streaming from Space Station

AZUR (GRS A)

Track AZUR (GRS A) now!
10-day predictions
AZUR (GRS A) is classified as:


NORAD ID: 4221
Int'l Code: 1969-097A
Perigee: 365.5 km
Apogee: 1,349.5 km
Inclination: 102.7 °
Period: 101.9 minutes
Semi major axis: 7228 km
RCS: 0.3339 m2 (medium)
Launch date: November 8, 1969
Source: Germany (GER)
Your satellite tracking list
Your tracking list is empty





NASA's NSSDC Master Catalog

Two Line Element Set (TLE):
1 04221U 69097A   15123.16738299  .00007709  00000-0  38619-3 0  9990
2 04221 102.6917 357.6817 0680656 257.3259 095.1024 14.12635572139154

Source of the keplerian elements: AFSPC

N2YO: 2983